TimeEDT,TemperatureF,Dew PointF,Humidity,Sea Level PressureIn,VisibilityMPH,Wind Direction,Wind SpeedMPH,Gust SpeedMPH,PrecipitationIn,Events,Conditions,WindDirDegrees,DateUTC
12:56 AM,72.0,72.0,100,30.13,9.0,Calm,Calm,-,N/A,,Partly Cloudy,0,2013-06-23 04:56:00
1:56 AM,73.0,72.0,96,30.12,10.0,Calm,Calm,-,N/A,,Partly Cloudy,0,2013-06-23 05:56:00
2:56 AM,72.0,71.1,97,30.11,9.0,Calm,Calm,-,N/A,,Partly Cloudy,0,2013-06-23 06:56:00
3:56 AM,72.0,70.0,93,30.11,10.0,Calm,Calm,-,N/A,,Partly Cloudy,0,2013-06-23 07:56:00
4:52 AM,71.6,69.8,94,30.11,9.0,Calm,Calm,-,N/A,,Partly Cloudy,0,2013-06-23 08:52:00
4:56 AM,71.1,70.0,96,30.11,9.0,Calm,Calm,-,N/A,,Partly Cloudy,0,2013-06-23 08:56:00
5:56 AM,70.0,69.1,97,30.12,10.0,Calm,Calm,-,N/A,,Scattered Clouds,0,2013-06-23 09:56:00
6:56 AM,71.1,70.0,96,30.13,10.0,Calm,Calm,-,N/A,,Mostly Cloudy,0,2013-06-23 10:56:00
7:56 AM,75.0,73.0,94,30.13,10.0,Calm,Calm,-,N/A,,Mostly Cloudy,0,2013-06-23 11:56:00
8:56 AM,79.0,75.0,88,30.15,10.0,Calm,Calm,-,N/A,,Mostly Cloudy,0,2013-06-23 12:56:00
9:56 AM,82.0,73.0,74,30.16,10.0,Variable,3.5,-,N/A,,Mostly Cloudy,0,2013-06-23 13:56:00
10:56 AM,82.9,71.1,67,30.17,10.0,Calm,Calm,-,N/A,,Mostly Cloudy,0,2013-06-23 14:56:00
11:56 AM,86.0,70.0,59,30.17,10.0,Calm,Calm,-,N/A,,Mostly Cloudy,0,2013-06-23 15:56:00
12:56 PM,88.0,73.9,63,30.16,10.0,NE,10.4,-,N/A,,Mostly Cloudy,50,2013-06-23 16:56:00
1:56 PM,86.0,73.9,67,30.14,10.0,ENE,10.4,-,N/A,,Mostly Cloudy,70,2013-06-23 17:56:00
2:56 PM,86.0,71.1,61,30.13,10.0,Variable,3.5,-,N/A,,Mostly Cloudy,0,2013-06-23 18:56:00
3:56 PM,88.0,73.0,61,30.10,10.0,East,6.9,-,N/A,,Mostly Cloudy,80,2013-06-23 19:56:00
4:56 PM,84.9,71.1,63,30.11,10.0,East,11.5,-,N/A,,Mostly Cloudy,90,2013-06-23 20:56:00
5:56 PM,86.0,72.0,63,30.11,10.0,ESE,10.4,-,N/A,,Mostly Cloudy,110,2013-06-23 21:56:00
6:56 PM,82.9,72.0,69,30.12,10.0,ESE,11.5,-,N/A,,Mostly Cloudy,110,2013-06-23 22:56:00
7:56 PM,81.0,73.0,77,30.14,10.0,ESE,10.4,-,N/A,,Mostly Cloudy,120,2013-06-23 23:56:00
8:56 PM,82.0,73.0,74,30.14,10.0,ESE,9.2,-,N/A,,Mostly Cloudy,120,2013-06-24 00:56:00
9:56 PM,80.1,73.0,79,30.14,10.0,SE,9.2,-,0.01,,Mostly Cloudy,140,2013-06-24 01:56:00
10:56 PM,78.1,73.0,84,30.16,10.0,SSE,5.8,-,N/A,,Mostly Cloudy,150,2013-06-24 02:56:00
11:56 PM,77.0,73.0,88,30.16,10.0,SE,5.8,-,N/A,,Mostly Cloudy,140,2013-06-24 03:56:00